GRARBER Weather Reports


Display with metric or nautical units.
time (UTC)temp
F
wind
direction
speed
MPH
gust
MPH
rain 1hr
in
rain 24hr
in
rain mn
in
humidity
%
barometer
mb
20260831161955 55 240 12.0 20.0 0.00 0.00 0.00 76
20260831151656 57 250 13.0 23.0 0.00 0.00 0.00 76
20260831141754 57 240 16.0 0.0 0.00 0.00 0.00 82
20260831131755 54 250 17.0 0.0 0.00 0.00 0.00 93
20260831121655 54 240 17.0 26.0 0.00 0.00 0.00 99
20260831111755 52 240 23.0 36.0 0.00 0.00 0.00 99
20260831101955 50 260 22.0 37.0 0.00 0.00 0.00 99
20260831091655 52 270 25.0 37.0 0.00 0.00 0.00 99
20260831081755 52 240 20.0 28.0 0.00 0.00 0.00 99
20260831071756 52 230 23.0 31.0 0.00 0.00 0.00 99
20260831061710 52 230 30.0 40.0 0.00 0.00 0.00 99
20260831051911 54 180 18.0 29.0 0.00 0.00 0.00 99
20260831041955 55 180 21.0 28.0 0.00 0.00 0.00 93
20260831031655 55 180 16.0 0.0 0.00 0.00 0.00 87
20260831021754 57 180 16.0 0.0 0.00 0.00 0.00 87
20260831011755 57 200 10.0 0.0 0.00 0.00 0.00 87
20260831001655 57 190 13.0 0.0 0.00 0.00 0.00 87
20260830231855 57 190 10.0 0.0 0.00 0.00 0.00 87
20260830221856 57 200 8.0 0.0 0.00 0.00 0.00 87
20260830211656 57 200 7.0 0.0 0.00 0.00 0.00 82
20260830201855 57 210 9.0 0.0 0.00 0.00 0.00 82
20260830191755 57 200 8.0 0.0 0.00 0.00 0.00 82
20260830181657 59 190 6.0 0.0 0.00 0.00 0.00 82
20260830171854 59 230 14.0 0.0 0.00 0.00 0.00 77